Location: Sternwarte ZA, Rosenfeld-Brittheim
(48.2889°N, 8.6789°E)
Time: 19:46:56
(UTC+02:00)

ISS - Visible Passes

Search period start: 27 May 2018 00:00
Search period end: 06 June 2018 00:00
Orbit: 402 x 407 km, 51.6° (Epoch: 27 May)

Date Brightness Start Highest point End Pass type
(mag) Time Alt. Az. Time Alt. Az. Time Alt. Az.
27 May -3.1 00:21:39 10° WNW 00:24:52 53° NNE 00:26:26 26° E visible
27 May -1.6 01:58:12 10° WNW 01:59:03 16° W 01:59:03 16° W visible
27 May -3.1 21:52:33 10° W 21:55:47 58° NNW 21:59:02 10° ENE visible
27 May -2.8 23:29:24 10° WNW 23:32:36 46° N 23:35:43 10° E visible
28 May -3.1 01:05:57 10° WNW 01:08:21 44° W 01:08:21 44° W visible
28 May -2.7 22:37:07 10° WNW 22:40:17 44° N 22:43:26 10° ENE visible
29 May -3.8 00:13:44 10° WNW 00:17:01 77° NNE 00:17:42 52° E visible
29 May -3.3 23:21:29 10° WNW 23:24:45 58° NNE 23:27:06 17° E visible
30 May -2.2 00:58:05 10° WNW 00:59:44 24° W 00:59:44 24° W visible
30 May -2.9 22:29:14 10° WNW 22:32:26 48° N 22:35:37 10° E visible
31 May -3.9 00:05:46 10° WNW 00:09:01 63° SSW 00:09:09 62° SSW visible
31 May -3.9 23:13:30 10° WNW 23:16:47 87° NNE 23:18:36 24° ESE visible
01 Jun -1.4 00:50:27 10° W 00:51:13 14° W 00:51:13 14° W visible
01 Jun -3.5 22:21:14 10° WNW 22:24:30 63° NNE 22:27:45 10° E visible
01 Jun -2.9 23:57:52 10° W 00:00:41 32° SW 00:00:41 32° SW visible
02 Jun -3.6 23:05:29 10° WNW 23:08:41 53° SSW 23:10:10 27° SE visible
03 Jun -3.9 22:13:08 10° WNW 22:16:26 82° SSW 22:19:41 10° ESE visible
03 Jun -1.8 23:50:18 10° W 23:52:20 17° SW 23:52:20 17° SW visible
04 Jun -2.5 22:57:34 10° W 23:00:24 27° SW 23:01:52 19° S visible
05 Jun -3.2 22:05:04 10° WNW 22:08:14 45° SSW 22:11:22 10° SE visible
